Albenga, Italy

12:25 PM CEST on September 21, 2017 (GMT +0200)
Albenga | | Change Station

Elev 0 ft 44.05 °N, 8.22 °E | Updated 13 minutes ago

Clear
Clear
77.7 °F
Feels Like 79 °F
N
1.2
Wind Variable Wind from NE
Gusts 3.1 mph

Today
High -- | Low -- °F
--% Chance of Precip.
Yesterday
High -- | Low -- °F
Precip. -- in
Pressure 30.12 in
Visibility -9999.0 miles
Clouds
Heat Index 79 °F
Dew Point 56 °F
Humidity 46%
Rainfall 0.00 in
Snow Depth Not available.
7:13 AM 7:26 PM
New Moon, 2% visible
METAR LIMU 210955Z 07002KT CAVOK 21/12 Q1020 RMK SKC QUK 2 QUL 1 E VIS MAR 40 KM VIS MIN 9999
Pressure 30.12 in
Visibility -9999.0 miles
Clouds
Heat Index 79 °F
Dew Point 56 °F
Humidity 46%
Rainfall 0.00 in
Snow Depth Not available.
7:13 AM 7:26 PM
New Moon, 2% visible
METAR LIMU 210955Z 07002KT CAVOK 21/12 Q1020 RMK SKC QUK 2 QUL 1 E VIS MAR 40 KM VIS MIN 9999

Get Severe Weather Alerts

Thanks for signing up!

Be on the lookout for a verification email in your inbox.

You'll start receiving the daily forecast at 6 AM.

×

10-Day Weather Forecast

×

Almanac

Astronomy

Sep. 21, 2017 Rise Set
Actual Time
Civil Twilight
Nautical Twilight
Astronomical Twilight
Moon
Length of Visible Light
Length of Day
Tomorrow will be .
, % of the Moon is Illuminated

Today's Extremes

Country Highs Country Lows

Community

WunderPhotos

Category 6

Welcome to Category 6. This is the collective home for Weather Underground's featured writeups by Dr. Jeff Masters (right), Bob Henson (left), Chris Burt, and other regular contributors.

Nearby

Air Quality

  Air Quality AQ Index Pollutant
Not available.

Snow Depth

Station Depth Elevation

Earthquake Activity

City Distance Mag. Time & Date
Minimum magnitude displayed is 2.5.

Coastal Water Temperatures

Place Temperature

Stations

Nearby Weather Stations

Station Location Temp. Windchill Dew Point Humidity Wind Precip. Elev Updated Type